owner,sensor,date,latitude,longitude,air_pressure(mBar),qcFlag 
TABS,ioos:station:wmo:42045:1,2008-06-01T00:00:00Z,26.2168,-96.4998,1013.63,11111222 
TABS,ioos:station:wmo:42045:1,2008-06-01T00:30:00Z,26.2168,-96.4998,1013.77,11111222 
TABS,ioos:station:wmo:42045:1,2008-06-01T01:00:00Z,26.2168,-96.4998,1013.88,11111222 
TABS,ioos:station:wmo:42045:1,2008-06-01T01:30:00Z,26.2168,-96.4998,1013.93,11111222 
TABS,ioos:station:wmo:42045:1,2008-06-01T02:00:00Z,26.2168,-96.4998,1014.16,11111222 
TABS,ioos:station:wmo:42045:1,2008-06-01T02:30:00Z,26.2168,-96.4998,1014.41,11111222 
TABS,ioos:station:wmo:42045:1,2008-06-01T03:00:00Z,26.2168,-96.4998,1014.6,11111222 
TABS,ioos:station:wmo:42045:1,2008-06-01T03:30:00Z,26.2168,-96.4998,1014.89,11111222 
TABS,ioos:station:wmo:42045:1,2008-06-01T04:00:00Z,26.2168,-96.4998,1014.98,11111222 
TABS,ioos:station:wmo:42045:1,2008-06-01T04:30:00Z,26.2168,-96.4998,1014.86,11111222 
TABS,ioos:station:wmo:42045:1,2008-06-01T05:00:00Z,26.2168,-96.4998,1014.81,11111222 
TABS,ioos:station:wmo:42045:1,2008-06-01T05:30:00Z,26.2168,-96.4998,1014.75,11111222 
TABS,ioos:station:wmo:42045:1,2008-06-01T06:00:00Z,26.2168,-96.4998,1014.67,11111222 
TABS,ioos:station:wmo:42045:1,2008-06-01T06:30:00Z,26.2168,-96.4998,1014.29,11111222 
TABS,ioos:station:wmo:42045:1,2008-06-01T07:00:00Z,26.2168,-96.4998,1014.07,11111222 
TABS,ioos:station:wmo:42045:1,2008-06-01T07:30:00Z,26.2168,-96.4998,1013.65,11111222 
TABS,ioos:station:wmo:42045:1,2008-06-01T08:00:00Z,26.2168,-96.4998,1013.35,11111222 
TABS,ioos:station:wmo:42045:1,2008-06-01T08:30:00Z,26.2168,-96.4998,1013.18,11111222 
TABS,ioos:station:wmo:42045:1,2008-06-01T09:00:00Z,26.2168,-96.4998,1012.94,11111222 
TABS,ioos:station:wmo:42045:1,2008-06-01T09:30:00Z,26.2168,-96.4998,1013.0,11111222 
TABS,ioos:station:wmo:42045:1,2008-06-01T10:00:00Z,26.2168,-96.4998,1013.06,11111222 
TABS,ioos:station:wmo:42045:1,2008-06-01T10:30:00Z,26.2168,-96.4998,1013.37,11111222 
TABS,ioos:station:wmo:42045:1,2008-06-01T11:00:00Z,26.2168,-96.4998,1013.35,11111222 
TABS,ioos:station:wmo:42045:1,2008-06-01T11:30:00Z,26.2168,-96.4998,1013.47,11111222 
TABS,ioos:station:wmo:42045:1,2008-06-01T12:00:00Z,26.2168,-96.4998,1013.68,11111222 
TABS,ioos:station:wmo:42045:1,2008-06-01T12:30:00Z,26.2168,-96.4998,1013.79,11111222 
TABS,ioos:station:wmo:42045:1,2008-06-01T13:00:00Z,26.2168,-96.4998,1014.08,11111222 
TABS,ioos:station:wmo:42045:1,2008-06-01T13:30:00Z,26.2168,-96.4998,1014.29,11111222 
TABS,ioos:station:wmo:42045:1,2008-06-01T14:00:00Z,26.2168,-96.4998,1014.56,11111222 
TABS,ioos:station:wmo:42045:1,2008-06-01T14:30:00Z,26.2168,-96.4998,1014.86,11111222 
TABS,ioos:station:wmo:42045:1,2008-06-01T15:00:00Z,26.2168,-96.4998,1014.86,11111222 
TABS,ioos:station:wmo:42045:1,2008-06-01T15:30:00Z,26.2168,-96.4998,1015.02,11111222 
TABS,ioos:station:wmo:42045:1,2008-06-01T16:00:00Z,26.2168,-96.4998,1015.04,11111222 
TABS,ioos:station:wmo:42045:1,2008-06-01T16:30:00Z,26.2168,-96.4998,1014.92,11111222 
TABS,ioos:station:wmo:42045:1,2008-06-01T17:00:00Z,26.2168,-96.4998,1015.09,11111222 
TABS,ioos:station:wmo:42045:1,2008-06-01T17:30:00Z,26.2168,-96.4998,1015.14,11111222 
TABS,ioos:station:wmo:42045:1,2008-06-01T18:00:00Z,26.2168,-96.4998,1014.85,11111222 
TABS,ioos:station:wmo:42045:1,2008-06-01T18:30:00Z,26.2168,-96.4998,1014.57,11111222 
TABS,ioos:station:wmo:42045:1,2008-06-01T19:00:00Z,26.2168,-96.4998,1014.42,11111222 
TABS,ioos:station:wmo:42045:1,2008-06-01T19:30:00Z,26.2168,-96.4998,1014.02,11111222 
TABS,ioos:station:wmo:42045:1,2008-06-01T20:00:00Z,26.2168,-96.4998,1013.73,11111222 
TABS,ioos:station:wmo:42045:1,2008-06-01T20:30:00Z,26.2168,-96.4998,1013.49,11111222 
TABS,ioos:station:wmo:42045:1,2008-06-01T21:00:00Z,26.2168,-96.4998,1013.29,11111222 
TABS,ioos:station:wmo:42045:1,2008-06-01T21:30:00Z,26.2168,-96.4998,1013.02,11111222 
TABS,ioos:station:wmo:42045:1,2008-06-01T22:00:00Z,26.2168,-96.4998,1012.92,11111222 
TABS,ioos:station:wmo:42045:1,2008-06-01T22:30:00Z,26.2168,-96.4998,1012.82,11111222 
TABS,ioos:station:wmo:42045:1,2008-06-01T23:00:00Z,26.2168,-96.4998,1013.01,11111222 
TABS,ioos:station:wmo:42045:1,2008-06-01T23:30:00Z,26.2168,-96.4998,1013.07,11111222 
TABS,ioos:station:wmo:42045:1,2008-06-02T00:00:00Z,26.2168,-96.4998,1013.2,11111222 
TABS,ioos:station:wmo:42045:1,2008-06-02T00:30:00Z,26.2168,-96.4998,1013.54,11111222 
TABS,ioos:station:wmo:42045:1,2008-06-02T01:00:00Z,26.2168,-96.4998,1013.58,11111222 
TABS,ioos:station:wmo:42045:1,2008-06-02T01:30:00Z,26.2168,-96.4998,1013.71,11111222 
TABS,ioos:station:wmo:42045:1,2008-06-02T02:00:00Z,26.2168,-96.4998,1013.95,11111222 
TABS,ioos:station:wmo:42045:1,2008-06-02T02:30:00Z,26.2168,-96.4998,1013.98,11111222 
TABS,ioos:station:wmo:42045:1,2008-06-02T03:00:00Z,26.2168,-96.4998,1014.26,11111222 
TABS,ioos:station:wmo:42045:1,2008-06-02T03:30:00Z,26.2168,-96.4998,1014.56,11111222 
TABS,ioos:station:wmo:42045:1,2008-06-02T04:00:00Z,26.2168,-96.4998,1014.75,11111222 
TABS,ioos:station:wmo:42045:1,2008-06-02T04:30:00Z,26.2168,-96.4998,1014.82,11111222 
TABS,ioos:station:wmo:42045:1,2008-06-02T05:00:00Z,26.2168,-96.4998,1014.58,11111222 
TABS,ioos:station:wmo:42045:1,2008-06-02T05:30:00Z,26.2168,-96.4998,1014.39,11111222 
TABS,ioos:station:wmo:42045:1,2008-06-02T06:00:00Z,26.2168,-96.4998,1014.44,11111222 
TABS,ioos:station:wmo:42045:1,2008-06-02T06:30:00Z,26.2168,-96.4998,1014.11,11111222 
TABS,ioos:station:wmo:42045:1,2008-06-02T07:00:00Z,26.2168,-96.4998,1013.78,11111222 
TABS,ioos:station:wmo:42045:1,2008-06-02T07:30:00Z,26.2168,-96.4998,1013.63,11111222 
TABS,ioos:station:wmo:42045:1,2008-06-02T08:00:00Z,26.2168,-96.4998,1013.26,11111222 
TABS,ioos:station:wmo:42045:1,2008-06-02T08:30:00Z,26.2168,-96.4998,1012.9,11111222 
TABS,ioos:station:wmo:42045:1,2008-06-02T09:00:00Z,26.2168,-96.4998,1012.73,11111222 
TABS,ioos:station:wmo:42045:1,2008-06-02T09:30:00Z,26.2168,-96.4998,1012.58,11111222 
TABS,ioos:station:wmo:42045:1,2008-06-02T10:00:00Z,26.2168,-96.4998,1012.39,11111222 
TABS,ioos:station:wmo:42045:1,2008-06-02T10:30:00Z,26.2168,-96.4998,1012.59,11111222 
TABS,ioos:station:wmo:42045:1,2008-06-02T11:00:00Z,26.2168,-96.4998,1012.86,11111222 
TABS,ioos:station:wmo:42045:1,2008-06-02T11:30:00Z,26.2168,-96.4998,1013.02,11111222 
TABS,ioos:station:wmo:42045:1,2008-06-02T12:00:00Z,26.2168,-96.4998,1013.36,11111222 
TABS,ioos:station:wmo:42045:1,2008-06-02T12:30:00Z,26.2168,-96.4998,1013.62,11111222 
TABS,ioos:station:wmo:42045:1,2008-06-02T13:00:00Z,26.2168,-96.4998,1013.87,11111222 
TABS,ioos:station:wmo:42045:1,2008-06-02T13:30:00Z,26.2168,-96.4998,1014.16,11111222 
TABS,ioos:station:wmo:42045:1,2008-06-02T14:00:00Z,26.2168,-96.4998,1014.35,11111222 
TABS,ioos:station:wmo:42045:1,2008-06-02T14:30:00Z,26.2168,-96.4998,1014.52,11111222 
TABS,ioos:station:wmo:42045:1,2008-06-02T15:00:00Z,26.2168,-96.4998,1014.62,11111222 
TABS,ioos:station:wmo:42045:1,2008-06-02T15:30:00Z,26.2168,-96.4998,1014.61,11111222 
TABS,ioos:station:wmo:42045:1,2008-06-02T16:00:00Z,26.2168,-96.4998,1014.7,11111222 
TABS,ioos:station:wmo:42045:1,2008-06-02T16:30:00Z,26.2168,-96.4998,1014.83,11111222 
TABS,ioos:station:wmo:42045:1,2008-06-02T17:00:00Z,26.2168,-96.4998,1014.81,11111222 
TABS,ioos:station:wmo:42045:1,2008-06-02T17:30:00Z,26.2168,-96.4998,1014.71,11111222 
TABS,ioos:station:wmo:42045:1,2008-06-02T18:00:00Z,26.2168,-96.4998,1014.51,11111222 
TABS,ioos:station:wmo:42045:1,2008-06-02T18:30:00Z,26.2168,-96.4998,1014.29,11111222 
TABS,ioos:station:wmo:42045:1,2008-06-02T19:00:00Z,26.2168,-96.4998,1014.02,11111222 
TABS,ioos:station:wmo:42045:1,2008-06-02T19:30:00Z,26.2168,-96.4998,1013.87,11111222 
TABS,ioos:station:wmo:42045:1,2008-06-02T20:00:00Z,26.2168,-96.4998,1013.6,11111222 
TABS,ioos:station:wmo:42045:1,2008-06-02T20:30:00Z,26.2168,-96.4998,1013.35,11111222 
TABS,ioos:station:wmo:42045:1,2008-06-02T21:00:00Z,26.2168,-96.4998,1012.97,11111222 
TABS,ioos:station:wmo:42045:1,2008-06-02T21:30:00Z,26.2168,-96.4998,1012.82,11111222 
TABS,ioos:station:wmo:42045:1,2008-06-02T22:00:00Z,26.2168,-96.4998,1012.5,11111222 
TABS,ioos:station:wmo:42045:1,2008-06-02T22:30:00Z,26.2168,-96.4998,1012.11,11111222 
TABS,ioos:station:wmo:42045:1,2008-06-02T23:00:00Z,26.2168,-96.4998,1011.89,11111222 
TABS,ioos:station:wmo:42045:1,2008-06-02T23:30:00Z,26.2168,-96.4998,1011.97,11111222 
TABS,ioos:station:wmo:42045:1,2008-06-03T00:00:00Z,26.2168,-96.4998,1011.92,11111222 
TABS,ioos:station:wmo:42045:1,2008-06-03T00:30:00Z,26.2168,-96.4998,1012.07,11111222 
TABS,ioos:station:wmo:42045:1,2008-06-03T01:00:00Z,26.2168,-96.4998,1012.12,11111222 
TABS,ioos:station:wmo:42045:1,2008-06-03T01:30:00Z,26.2168,-96.4998,1012.3,11111222 
TABS,ioos:station:wmo:42045:1,2008-06-03T02:00:00Z,26.2168,-96.4998,1012.53,11111222 
TABS,ioos:station:wmo:42045:1,2008-06-03T02:30:00Z,26.2168,-96.4998,1012.67,11111222 
TABS,ioos:station:wmo:42045:1,2008-06-03T03:00:00Z,26.2168,-96.4998,1012.96,11111222 
TABS,ioos:station:wmo:42045:1,2008-06-03T03:30:00Z,26.2168,-96.4998,1013.29,11111222 
TABS,ioos:station:wmo:42045:1,2008-06-03T04:00:00Z,26.2168,-96.4998,1013.27,11111222 
TABS,ioos:station:wmo:42045:1,2008-06-03T04:30:00Z,26.2168,-96.4998,1013.31,11111222 
TABS,ioos:station:wmo:42045:1,2008-06-03T05:00:00Z,26.2168,-96.4998,1013.25,11111222 
TABS,ioos:station:wmo:42045:1,2008-06-03T05:30:00Z,26.2168,-96.4998,1013.06,11111222 
TABS,ioos:station:wmo:42045:1,2008-06-03T06:00:00Z,26.2168,-96.4998,1012.9,11111222 
TABS,ioos:station:wmo:42045:1,2008-06-03T06:30:00Z,26.2168,-96.4998,1012.5,11111222 
TABS,ioos:station:wmo:42045:1,2008-06-03T07:00:00Z,26.2168,-96.4998,1012.35,11111222 
TABS,ioos:station:wmo:42045:1,2008-06-03T07:30:00Z,26.2168,-96.4998,1012.17,11111222 
TABS,ioos:station:wmo:42045:1,2008-06-03T08:00:00Z,26.2168,-96.4998,1011.89,11111222 
TABS,ioos:station:wmo:42045:1,2008-06-03T08:30:00Z,26.2168,-96.4998,1011.76,11111222 
TABS,ioos:station:wmo:42045:1,2008-06-03T09:00:00Z,26.2168,-96.4998,1011.63,11111222 
TABS,ioos:station:wmo:42045:1,2008-06-03T09:30:00Z,26.2168,-96.4998,1011.65,11111222 
TABS,ioos:station:wmo:42045:1,2008-06-03T10:00:00Z,26.2168,-96.4998,1011.57,11111222 
TABS,ioos:station:wmo:42045:1,2008-06-03T10:30:00Z,26.2168,-96.4998,1011.42,11111222 
TABS,ioos:station:wmo:42045:1,2008-06-03T11:00:00Z,26.2168,-96.4998,1011.34,11111222 
TABS,ioos:station:wmo:42045:1,2008-06-03T11:30:00Z,26.2168,-96.4998,1011.57,11111222 
TABS,ioos:station:wmo:42045:1,2008-06-03T12:00:00Z,26.2168,-96.4998,1011.81,11111222 
TABS,ioos:station:wmo:42045:1,2008-06-03T12:30:00Z,26.2168,-96.4998,1011.93,11111222 
TABS,ioos:station:wmo:42045:1,2008-06-03T13:00:00Z,26.2168,-96.4998,1012.08,11111222 
TABS,ioos:station:wmo:42045:1,2008-06-03T13:30:00Z,26.2168,-96.4998,1012.42,11111222 
TABS,ioos:station:wmo:42045:1,2008-06-03T14:00:00Z,26.2168,-96.4998,1012.63,11111222 
TABS,ioos:station:wmo:42045:1,2008-06-03T14:30:00Z,26.2168,-96.4998,1012.74,11111222 
TABS,ioos:station:wmo:42045:1,2008-06-03T15:00:00Z,26.2168,-96.4998,1012.71,11111222 
TABS,ioos:station:wmo:42045:1,2008-06-03T15:30:00Z,26.2168,-96.4998,1012.67,11111222 
TABS,ioos:station:wmo:42045:1,2008-06-03T16:00:00Z,26.2168,-96.4998,1012.26,11111222 
TABS,ioos:station:wmo:42045:1,2008-06-03T16:30:00Z,26.2168,-96.4998,1012.25,11111222 
TABS,ioos:station:wmo:42045:1,2008-06-03T17:00:00Z,26.2168,-96.4998,1012.0,11111222 
TABS,ioos:station:wmo:42045:1,2008-06-03T17:30:00Z,26.2168,-96.4998,1011.72,11111222 
TABS,ioos:station:wmo:42045:1,2008-06-03T18:00:00Z,26.2168,-96.4998,1011.54,11111222 
TABS,ioos:station:wmo:42045:1,2008-06-03T18:30:00Z,26.2168,-96.4998,1011.39,11111222 
TABS,ioos:station:wmo:42045:1,2008-06-03T19:00:00Z,26.2168,-96.4998,1011.22,11111222 
TABS,ioos:station:wmo:42045:1,2008-06-03T19:30:00Z,26.2168,-96.4998,1010.75,11111222 
TABS,ioos:station:wmo:42045:1,2008-06-03T20:00:00Z,26.2168,-96.4998,1010.57,11111222 
TABS,ioos:station:wmo:42045:1,2008-06-03T20:30:00Z,26.2168,-96.4998,1010.26,11111222 
TABS,ioos:station:wmo:42045:1,2008-06-03T21:00:00Z,26.2168,-96.4998,1009.71,11111222 
TABS,ioos:station:wmo:42045:1,2008-06-03T21:30:00Z,26.2168,-96.4998,1009.51,11111222 
TABS,ioos:station:wmo:42045:1,2008-06-03T22:00:00Z,26.2168,-96.4998,1009.27,11111222 
TABS,ioos:station:wmo:42045:1,2008-06-03T22:30:00Z,26.2168,-96.4998,1009.01,11111222 
TABS,ioos:station:wmo:42045:1,2008-06-03T23:00:00Z,26.2168,-96.4998,1008.77,11111222 
TABS,ioos:station:wmo:42045:1,2008-06-03T23:30:00Z,26.2168,-96.4998,1008.67,11111222 
TABS,ioos:station:wmo:42045:1,2008-06-04T00:00:00Z,26.2168,-96.4998,1008.63,11111222 
TABS,ioos:station:wmo:42045:1,2008-06-04T00:30:00Z,26.2168,-96.4998,1008.66,11111222 
TABS,ioos:station:wmo:42045:1,2008-06-04T01:00:00Z,26.2168,-96.4998,1008.94,11111222 
TABS,ioos:station:wmo:42045:1,2008-06-04T01:30:00Z,26.2168,-96.4998,1009.05,11111222 
TABS,ioos:station:wmo:42045:1,2008-06-04T02:00:00Z,26.2168,-96.4998,1009.03,11111222 
TABS,ioos:station:wmo:42045:1,2008-06-04T02:30:00Z,26.2168,-96.4998,1009.39,11111222 
TABS,ioos:station:wmo:42045:1,2008-06-04T03:00:00Z,26.2168,-96.4998,1009.63,11111222 
TABS,ioos:station:wmo:42045:1,2008-06-04T03:30:00Z,26.2168,-96.4998,1009.65,11111222 
TABS,ioos:station:wmo:42045:1,2008-06-04T04:00:00Z,26.2168,-96.4998,1009.89,11111222 
TABS,ioos:station:wmo:42045:1,2008-06-04T04:30:00Z,26.2168,-96.4998,1009.93,11111222 
TABS,ioos:station:wmo:42045:1,2008-06-04T05:00:00Z,26.2168,-96.4998,1009.92,11111222 
TABS,ioos:station:wmo:42045:1,2008-06-04T05:30:00Z,26.2168,-96.4998,1009.98,11111222 
TABS,ioos:station:wmo:42045:1,2008-06-04T06:00:00Z,26.2168,-96.4998,1009.39,11111222 
TABS,ioos:station:wmo:42045:1,2008-06-04T06:30:00Z,26.2168,-96.4998,1009.12,11111222 
TABS,ioos:station:wmo:42045:1,2008-06-04T07:00:00Z,26.2168,-96.4998,1008.77,11111222 
TABS,ioos:station:wmo:42045:1,2008-06-04T07:30:00Z,26.2168,-96.4998,1008.68,11111222 
TABS,ioos:station:wmo:42045:1,2008-06-04T08:00:00Z,26.2168,-96.4998,1008.24,11111222 
TABS,ioos:station:wmo:42045:1,2008-06-04T08:30:00Z,26.2168,-96.4998,1007.99,11111222 
TABS,ioos:station:wmo:42045:1,2008-06-04T09:00:00Z,26.2168,-96.4998,1007.69,11111222 
TABS,ioos:station:wmo:42045:1,2008-06-04T09:30:00Z,26.2168,-96.4998,1007.72,11111222 
TABS,ioos:station:wmo:42045:1,2008-06-04T10:00:00Z,26.2168,-96.4998,1007.48,11111222 
TABS,ioos:station:wmo:42045:1,2008-06-04T10:30:00Z,26.2168,-96.4998,1007.71,11111222 
TABS,ioos:station:wmo:42045:1,2008-06-04T11:00:00Z,26.2168,-96.4998,1007.56,11111222 
TABS,ioos:station:wmo:42045:1,2008-06-04T11:30:00Z,26.2168,-96.4998,1007.52,11111222 
TABS,ioos:station:wmo:42045:1,2008-06-04T12:00:00Z,26.2168,-96.4998,1007.78,11111222 
TABS,ioos:station:wmo:42045:1,2008-06-04T12:30:00Z,26.2168,-96.4998,1007.88,11111222 
TABS,ioos:station:wmo:42045:1,2008-06-04T13:00:00Z,26.2168,-96.4998,1008.09,11111222 
TABS,ioos:station:wmo:42045:1,2008-06-04T13:30:00Z,26.2168,-96.4998,1008.23,11111222 
TABS,ioos:station:wmo:42045:1,2008-06-04T14:00:00Z,26.2168,-96.4998,1008.16,11111222 
TABS,ioos:station:wmo:42045:1,2008-06-04T14:30:00Z,26.2168,-96.4998,1008.19,11111222 
TABS,ioos:station:wmo:42045:1,2008-06-04T15:00:00Z,26.2168,-96.4998,1008.16,11111222 
TABS,ioos:station:wmo:42045:1,2008-06-04T15:30:00Z,26.2168,-96.4998,1008.24,11111222 
TABS,ioos:station:wmo:42045:1,2008-06-04T16:00:00Z,26.2168,-96.4998,1008.3,11111222 
TABS,ioos:station:wmo:42045:1,2008-06-04T16:30:00Z,26.2168,-96.4998,1008.14,11111222 
TABS,ioos:station:wmo:42045:1,2008-06-04T17:00:00Z,26.2168,-96.4998,1007.95,11111222 
TABS,ioos:station:wmo:42045:1,2008-06-04T17:30:00Z,26.2168,-96.4998,1007.81,11111222 
TABS,ioos:station:wmo:42045:1,2008-06-04T18:00:00Z,26.2168,-96.4998,1007.78,11111222 
TABS,ioos:station:wmo:42045:1,2008-06-04T18:30:00Z,26.2168,-96.4998,1007.74,11111222 
TABS,ioos:station:wmo:42045:1,2008-06-04T19:00:00Z,26.2168,-96.4998,1007.44,11111222 
TABS,ioos:station:wmo:42045:1,2008-06-04T19:30:00Z,26.2168,-96.4998,1007.14,11111222 
TABS,ioos:station:wmo:42045:1,2008-06-04T20:00:00Z,26.2168,-96.4998,1006.83,11111222 
TABS,ioos:station:wmo:42045:1,2008-06-04T20:30:00Z,26.2168,-96.4998,1006.53,11111222 
TABS,ioos:station:wmo:42045:1,2008-06-04T21:00:00Z,26.2168,-96.4998,1006.37,11111222 
TABS,ioos:station:wmo:42045:1,2008-06-04T21:30:00Z,26.2168,-96.4998,1006.3,11111222 
TABS,ioos:station:wmo:42045:1,2008-06-04T22:00:00Z,26.2168,-96.4998,1005.91,11111222 
TABS,ioos:station:wmo:42045:1,2008-06-04T22:30:00Z,26.2168,-96.4998,1005.6,11111222 
TABS,ioos:station:wmo:42045:1,2008-06-04T23:00:00Z,26.2168,-96.4998,1005.61,11111222 
TABS,ioos:station:wmo:42045:1,2008-06-04T23:30:00Z,26.2168,-96.4998,1005.5,11111222 
TABS,ioos:station:wmo:42045:1,2008-06-05T00:00:00Z,26.2168,-96.4998,1005.64,11111222 
TABS,ioos:station:wmo:42045:1,2008-06-05T00:30:00Z,26.2168,-96.4998,1005.51,11111222 
TABS,ioos:station:wmo:42045:1,2008-06-05T01:00:00Z,26.2168,-96.4998,1005.61,11111222 
TABS,ioos:station:wmo:42045:1,2008-06-05T01:30:00Z,26.2168,-96.4998,1005.57,11111222 
TABS,ioos:station:wmo:42045:1,2008-06-05T02:00:00Z,26.2168,-96.4998,1005.78,11111222 
TABS,ioos:station:wmo:42045:1,2008-06-05T02:30:00Z,26.2168,-96.4998,1006.16,11111222 
TABS,ioos:station:wmo:42045:1,2008-06-05T03:00:00Z,26.2168,-96.4998,1006.47,11111222 
TABS,ioos:station:wmo:42045:1,2008-06-05T03:30:00Z,26.2168,-96.4998,1006.95,11111222 
TABS,ioos:station:wmo:42045:1,2008-06-05T04:00:00Z,26.2168,-96.4998,1007.16,11111222 
TABS,ioos:station:wmo:42045:1,2008-06-05T04:30:00Z,26.2168,-96.4998,1007.2,11111222 
TABS,ioos:station:wmo:42045:1,2008-06-05T05:00:00Z,26.2168,-96.4998,1007.14,11111222 
TABS,ioos:station:wmo:42045:1,2008-06-05T05:30:00Z,26.2168,-96.4998,1006.94,11111222 
TABS,ioos:station:wmo:42045:1,2008-06-05T06:00:00Z,26.2168,-96.4998,1006.69,11111222 
TABS,ioos:station:wmo:42045:1,2008-06-05T06:30:00Z,26.2168,-96.4998,1006.57,11111222 
TABS,ioos:station:wmo:42045:1,2008-06-05T07:00:00Z,26.2168,-96.4998,1006.42,11111222 
TABS,ioos:station:wmo:42045:1,2008-06-05T07:30:00Z,26.2168,-96.4998,1006.14,11111222 
TABS,ioos:station:wmo:42045:1,2008-06-05T08:00:00Z,26.2168,-96.4998,1006.03,11111222 
TABS,ioos:station:wmo:42045:1,2008-06-05T08:30:00Z,26.2168,-96.4998,1005.82,11111222 
TABS,ioos:station:wmo:42045:1,2008-06-05T09:00:00Z,26.2168,-96.4998,1005.74,11111222 
TABS,ioos:station:wmo:42045:1,2008-06-05T09:30:00Z,26.2168,-96.4998,1005.47,11111222 
TABS,ioos:station:wmo:42045:1,2008-06-05T10:00:00Z,26.2168,-96.4998,1005.7,11111222 
TABS,ioos:station:wmo:42045:1,2008-06-05T10:30:00Z,26.2168,-96.4998,1005.85,11111222 
TABS,ioos:station:wmo:42045:1,2008-06-05T11:00:00Z,26.2168,-96.4998,1005.83,11111222 
TABS,ioos:station:wmo:42045:1,2008-06-05T11:30:00Z,26.2168,-96.4998,1005.83,11111222 
TABS,ioos:station:wmo:42045:1,2008-06-05T12:00:00Z,26.2168,-96.4998,1005.87,11111222 
TABS,ioos:station:wmo:42045:1,2008-06-05T12:30:00Z,26.2168,-96.4998,1006.18,11111222 
TABS,ioos:station:wmo:42045:1,2008-06-05T13:00:00Z,26.2168,-96.4998,1006.43,11111222 
TABS,ioos:station:wmo:42045:1,2008-06-05T13:30:00Z,26.2168,-96.4998,1006.47,11111222 
TABS,ioos:station:wmo:42045:1,2008-06-05T14:00:00Z,26.2168,-96.4998,1006.81,11111222 
TABS,ioos:station:wmo:42045:1,2008-06-05T14:30:00Z,26.2168,-96.4998,1006.79,11111222 
TABS,ioos:station:wmo:42045:1,2008-06-05T15:00:00Z,26.2168,-96.4998,1006.67,11111222 
TABS,ioos:station:wmo:42045:1,2008-06-05T15:30:00Z,26.2168,-96.4998,1006.79,11111222 
TABS,ioos:station:wmo:42045:1,2008-06-05T16:00:00Z,26.2168,-96.4998,1006.86,11111222 
TABS,ioos:station:wmo:42045:1,2008-06-05T16:30:00Z,26.2168,-96.4998,1007.04,11111222 
TABS,ioos:station:wmo:42045:1,2008-06-05T17:00:00Z,26.2168,-96.4998,1007.27,11111222 
TABS,ioos:station:wmo:42045:1,2008-06-05T17:30:00Z,26.2168,-96.4998,1007.64,11111222 
TABS,ioos:station:wmo:42045:1,2008-06-05T18:00:00Z,26.2168,-96.4998,1007.59,11111222 
TABS,ioos:station:wmo:42045:1,2008-06-05T18:30:00Z,26.2168,-96.4998,1007.59,11111222 
TABS,ioos:station:wmo:42045:1,2008-06-05T19:00:00Z,26.2168,-96.4998,1007.38,11111222 
TABS,ioos:station:wmo:42045:1,2008-06-05T19:30:00Z,26.2168,-96.4998,1007.32,11111222 
TABS,ioos:station:wmo:42045:1,2008-06-05T20:00:00Z,26.2168,-96.4998,1007.33,11111222 
TABS,ioos:station:wmo:42045:1,2008-06-05T20:30:00Z,26.2168,-96.4998,1007.07,11111222 
TABS,ioos:station:wmo:42045:1,2008-06-05T21:00:00Z,26.2168,-96.4998,1006.61,11111222 
TABS,ioos:station:wmo:42045:1,2008-06-05T21:30:00Z,26.2168,-96.4998,1006.8,11111222 
TABS,ioos:station:wmo:42045:1,2008-06-05T22:00:00Z,26.2168,-96.4998,1006.61,11111222 
TABS,ioos:station:wmo:42045:1,2008-06-05T22:30:00Z,26.2168,-96.4998,1006.69,11111222 
TABS,ioos:station:wmo:42045:1,2008-06-05T23:00:00Z,26.2168,-96.4998,1006.55,11111222 
TABS,ioos:station:wmo:42045:1,2008-06-05T23:30:00Z,26.2168,-96.4998,1006.56,11111222 
TABS,ioos:station:wmo:42045:1,2008-06-06T00:00:00Z,26.2168,-96.4998,1006.74,11111222 
TABS,ioos:station:wmo:42045:1,2008-06-06T00:30:00Z,26.2168,-96.4998,1006.54,11111222 
TABS,ioos:station:wmo:42045:1,2008-06-06T01:00:00Z,26.2168,-96.4998,1006.84,11111222 
TABS,ioos:station:wmo:42045:1,2008-06-06T01:30:00Z,26.2168,-96.4998,1007.25,11111222 
TABS,ioos:station:wmo:42045:1,2008-06-06T02:00:00Z,26.2168,-96.4998,1007.73,11111222 
TABS,ioos:station:wmo:42045:1,2008-06-06T02:30:00Z,26.2168,-96.4998,1007.98,11111222 
TABS,ioos:station:wmo:42045:1,2008-06-06T03:00:00Z,26.2168,-96.4998,1008.45,11111222 
TABS,ioos:station:wmo:42045:1,2008-06-06T03:30:00Z,26.2168,-96.4998,1008.8,11111222 
TABS,ioos:station:wmo:42045:1,2008-06-06T04:00:00Z,26.2168,-96.4998,1009.01,11111222 
TABS,ioos:station:wmo:42045:1,2008-06-06T04:30:00Z,26.2168,-96.4998,1009.11,11111222 
TABS,ioos:station:wmo:42045:1,2008-06-06T05:00:00Z,26.2168,-96.4998,1008.87,11111222 
TABS,ioos:station:wmo:42045:1,2008-06-06T05:30:00Z,26.2168,-96.4998,1008.62,11111222 
TABS,ioos:station:wmo:42045:1,2008-06-06T06:00:00Z,26.2168,-96.4998,1008.21,11111222 
TABS,ioos:station:wmo:42045:1,2008-06-06T06:30:00Z,26.2168,-96.4998,1008.02,11111222 
TABS,ioos:station:wmo:42045:1,2008-06-06T07:00:00Z,26.2168,-96.4998,1007.75,11111222 
TABS,ioos:station:wmo:42045:1,2008-06-06T07:30:00Z,26.2168,-96.4998,1007.53,11111222 
TABS,ioos:station:wmo:42045:1,2008-06-06T08:00:00Z,26.2168,-96.4998,1007.6,11111222 
TABS,ioos:station:wmo:42045:1,2008-06-06T08:30:00Z,26.2168,-96.4998,1007.49,11111222 
TABS,ioos:station:wmo:42045:1,2008-06-06T09:00:00Z,26.2168,-96.4998,1007.88,11111222 
TABS,ioos:station:wmo:42045:1,2008-06-06T09:30:00Z,26.2168,-96.4998,1007.91,11111222 
TABS,ioos:station:wmo:42045:1,2008-06-06T10:00:00Z,26.2168,-96.4998,1008.02,11111222 
TABS,ioos:station:wmo:42045:1,2008-06-06T10:30:00Z,26.2168,-96.4998,1007.97,11111222 
TABS,ioos:station:wmo:42045:1,2008-06-06T11:00:00Z,26.2168,-96.4998,1008.34,11111222 
TABS,ioos:station:wmo:42045:1,2008-06-06T11:30:00Z,26.2168,-96.4998,1008.71,11111222 
TABS,ioos:station:wmo:42045:1,2008-06-06T12:00:00Z,26.2168,-96.4998,1009.18,11111222 
TABS,ioos:station:wmo:42045:1,2008-06-06T12:30:00Z,26.2168,-96.4998,1009.85,11111222 
TABS,ioos:station:wmo:42045:1,2008-06-06T13:00:00Z,26.2168,-96.4998,1010.3,11111222 
TABS,ioos:station:wmo:42045:1,2008-06-06T13:30:00Z,26.2168,-96.4998,1010.77,11111222 
TABS,ioos:station:wmo:42045:1,2008-06-06T14:00:00Z,26.2168,-96.4998,1011.02,11111222 
TABS,ioos:station:wmo:42045:1,2008-06-06T14:30:00Z,26.2168,-96.4998,1011.16,11111222 
TABS,ioos:station:wmo:42045:1,2008-06-06T15:00:00Z,26.2168,-96.4998,1011.37,11111222 
TABS,ioos:station:wmo:42045:1,2008-06-06T15:30:00Z,26.2168,-96.4998,1011.38,11111222 
TABS,ioos:station:wmo:42045:1,2008-06-06T16:00:00Z,26.2168,-96.4998,1011.63,11111222 
TABS,ioos:station:wmo:42045:1,2008-06-06T16:30:00Z,26.2168,-96.4998,1011.88,11111222 
TABS,ioos:station:wmo:42045:1,2008-06-06T17:00:00Z,26.2168,-96.4998,1012.05,11111222 
TABS,ioos:station:wmo:42045:1,2008-06-06T17:30:00Z,26.2168,-96.4998,1012.19,11111222 
TABS,ioos:station:wmo:42045:1,2008-06-06T18:00:00Z,26.2168,-96.4998,1012.23,11111222 
TABS,ioos:station:wmo:42045:1,2008-06-06T18:30:00Z,26.2168,-96.4998,1012.11,11111222 